EW6795 Weather Reports


time (UTC)temp
F
wind
direction
speed
knots
gust
knots
rain 1hr
in
rain 24hr
in
rain mn
in
humidity
%
barometer
mb
20260507072458 54 141 0.9 2.6 0.00 0.00 0.00 84 1020.3
20260507071958 54 185 0.0 2.6 0.00 0.00 0.00 84 1020.3
20260507071457 54 148 0.9 2.6 0.00 0.00 0.00 84 1020.0
20260507070956 54 190 1.7 2.6 0.00 0.00 0.00 84 1020.0
20260507070455 54 118 0.0 2.6 0.00 0.00 0.00 84 1020.0
20260507065954 54 149 0.9 2.6 0.00 0.00 0.00 84 1020.0
20260507065453 54 150 0.0 0.9 0.00 0.00 0.00 84 1020.0
20260507064952 54 110 0.0 0.9 0.00 0.00 0.00 84 1020.0
20260507064420 54 110 0.9 2.6 0.00 0.00 0.00 84 1020.0
20260507063919 54 109 0.0 2.6 0.00 0.00 0.00 83 1020.0
20260507063347 54 109 0.9 3.5 0.00 0.00 0.00 83 1020.0
20260507062846 54 207 1.7 3.5 0.00 0.00 0.00 83 1020.0
20260507062346 54 152 1.7 3.5 0.00 0.00 0.00 83 1020.0
20260507061845 54 131 1.7 3.5 0.00 0.00 0.00 82 1020.0
20260507061312 55 131 1.7 2.6 0.00 0.00 0.00 82 1020.0
20260507060812 55 153 0.0 2.6 0.00 0.00 0.00 82 1020.3
20260507060240 55 146 0.0 2.6 0.00 0.00 0.00 81 1020.0
20260507055738 55 122 0.9 2.6 0.00 0.00 0.00 81 1020.3
20260507055237 55 124 0.9 2.6 0.00 0.00 0.00 81 1020.3
20260507054736 55 124 0.0 0.9 0.00 0.00 0.00 81 1020.3
20260507054235 56 124 0.0 0.9 0.00 0.00 0.00 80 1020.3
20260507053734 56 192 0.0 0.9 0.00 0.00 0.00 80 1020.0
20260507053233 56 158 0.9 0.9 0.00 0.00 0.00 80 1020.3
20260507052732 56 152 0.9 1.7 0.00 0.00 0.00 80 1020.3
20260507052231 56 219 0.9 1.7 0.00 0.00 0.00 80 1020.3
20260507051731 56 166 0.0 1.7 0.00 0.00 0.00 79 1020.3
20260507051230 56 221 1.7 1.7 0.00 0.00 0.00 79 1020.3
20260507050657 56 199 0.0 5.2 0.00 0.00 0.00 79 1020.3
20260507050157 56 199 0.0 5.2 0.00 0.00 0.00 78 1020.0
20260507045656 56 198 0.0 5.2 0.00 0.00 0.00 78 1020.0
20260507045156 56 194 1.7 5.2 0.00 0.00 0.00 78 1020.0
20260507044654 56 137 1.7 3.5 0.00 0.00 0.00 78 1020.0
20260507044153 57 191 0.9 2.6 0.00 0.00 0.00 78 1020.0
20260507043652 57 181 1.7 1.7 0.00 0.00 0.00 77 1020.0
20260507043152 57 145 0.9 0.9 0.00 0.00 0.00 77 1020.3
20260507042651 57 150 0.0 0.9 0.00 0.00 0.00 77 1020.3
20260507042150 57 150 0.0 0.0 0.00 0.00 0.00 77 1020.0
20260507041618 57 150 0.0 0.0 0.00 0.00 0.00 77 1020.0
20260507041046 57 150 0.0 0.0 0.00 0.00 0.00 76 1020.0
20260507040545 57 150 0.0 0.0 0.00 0.00 0.00 76 1020.0
20260507035941 57 150 0.0 0.9 0.00 0.00 0.00 76 1020.0
20260507035440 57 150 0.0 0.9 0.00 0.00 0.00 76 1020.0
20260507034940 57 150 0.0 0.9 0.00 0.00 0.00 76 1020.0
20260507034439 57 150 0.0 0.9 0.00 0.00 0.00 76 1020.0
20260507033907 57 294 0.0 0.0 0.00 0.00 0.00 76 1020.0
20260507033406 57 294 0.0 0.0 0.00 0.00 0.00 76 1019.6
20260507032906 57 294 0.0 0.9 0.00 0.00 0.00 75 1019.6
20260507032406 57 294 0.0 0.9 0.00 0.00 0.00 75 1020.0
20260507031905 57 294 0.0 0.9 0.00 0.00 0.00 75 1019.6
20260507031404 57 294 0.9 0.9 0.00 0.00 0.00 75 1019.6
20260507030903 58 294 0.0 0.0 0.00 0.00 0.00 75 1019.6
20260507030402 58 294 0.0 0.9 0.00 0.00 0.00 75 1019.6
20260507025902 58 294 0.0 0.9 0.00 0.00 0.00 75 1019.6
20260507025330 58 294 0.0 0.9 0.00 0.00 0.00 75 1019.6
20260507024757 58 297 0.0 0.9 0.00 0.00 0.00 75 1019.6
20260507024226 58 147 0.0 0.9 0.00 0.00 0.00 75 1019.6
20260507023725 58 155 0.9 1.7 0.00 0.00 0.00 75 1019.6
20260507023153 58 208 0.0 1.7 0.00 0.00 0.00 75 1019.6
20260507022652 58 165 0.9 1.7 0.00 0.00 0.00 74 1019.6
20260507022151 58 278 0.0 2.6 0.00 0.00 0.00 74 1019.3
20260507021649 58 119 0.0 3.5 0.00 0.00 0.00 74 1019.6
20260507021148 58 119 0.0 3.5 0.00 0.00 0.00 74 1019.3
20260507020616 58 128 0.9 3.5 0.00 0.00 0.00 74 1019.3
20260507020115 58 214 0.0 2.6 0.00 0.00 0.00 75 1019.3
20260507015614 58 176 0.9 3.5 0.00 0.00 0.00 75 1019.3
20260507015113 58 132 1.7 3.5 0.00 0.00 0.00 74 1019.3
20260507014612 58 223 0.0 3.5 0.00 0.00 0.00 74 1019.3
20260507014041 58 207 0.9 3.5 0.00 0.00 0.00 74 1019.3
20260507013540 58 156 1.7 3.5 0.00 0.00 0.00 74 1019.3
20260507013039 58 129 1.7 3.5 0.00 0.00 0.00 74 1019.3
20260507012537 58 172 1.7 3.5 0.00 0.00 0.00 75 1019.6
20260507012037 58 239 1.7 3.5 0.00 0.00 0.00 75 1019.6
20260507011536 58 159 0.9 3.5 0.00 0.00 0.00 75 1019.6
20260507011034 58 297 0.9 3.5 0.00 0.00 0.00 75 1019.6
20260507010534 58 228 0.9 3.5 0.00 0.00 0.00 75 1019.6
20260507010033 58 149 1.7 3.5 0.00 0.00 0.00 74 1019.6
20260507005533 58 199 0.0 3.5 0.00 0.00 0.00 74 1019.6
20260507005032 58 164 1.7 3.5 0.00 0.00 0.00 74 1019.6
20260507004531 58 194 0.0 2.6 0.00 0.00 0.00 74 1019.6
20260507004031 58 218 1.7 4.3 0.00 0.00 0.00 74 1019.6
20260507003530 58 166 0.9 4.3 0.00 0.00 0.00 74 1019.6
20260507003029 58 145 0.9 4.3 0.00 0.00 0.00 74 1019.6
20260507002529 58 168 2.6 4.3 0.00 0.00 0.00 73 1019.6
20260507002028 58 181 1.7 3.5 0.00 0.00 0.00 73 1019.6
20260507001527 58 220 1.7 3.5 0.00 0.00 0.00 73 1019.6
20260507001027 58 189 0.9 3.5 0.00 0.00 0.00 73 1019.6
20260507000525 58 233 0.9 3.5 0.00 0.00 0.00 73 1019.6
20260507000024 58 134 0.9 4.3 0.00 0.00 0.00 74 1019.6
20260506235523 58 130 0.9 4.3 0.00 0.00 0.00 73 1019.6
20260506235022 58 163 1.7 5.2 0.00 0.00 0.00 73 1019.6
20260506234521 58 270 1.7 5.2 0.00 0.00 0.00 73 1019.6
20260506233949 58 182 0.9 5.2 0.00 0.00 0.00 73 1019.6
20260506233448 58 202 0.9 5.2 0.00 0.00 0.00 73 1019.6
20260506232947 58 278 1.7 5.2 0.00 0.00 0.00 72 1019.6
20260506232446 58 198 0.9 5.2 0.00 0.00 0.00 73 1019.6
20260506231945 58 166 2.6 7.0 0.00 0.00 0.00 72 1019.6
20260506231413 58 158 2.6 7.0 0.00 0.00 0.00 72 1019.6
20260506230912 58 317 0.9 7.0 0.00 0.00 0.00 72 1019.6
20260506230412 58 270 1.7 7.0 0.00 0.00 0.00 71 1019.6
20260506225911 59 225 1.7 6.1 0.00 0.00 0.00 71 1019.6
20260506225339 59 151 1.7 6.1 0.00 0.00 0.00 70 1019.6
20260506224838 59 206 2.6 6.1 0.00 0.00 0.00 70 1019.6
20260506224337 59 161 2.6 7.0 0.00 0.00 0.00 70 1019.6
20260506223836 59 121 2.6 7.0 0.00 0.00 0.00 69 1019.6
20260506223303 59 274 2.6 7.0 0.00 0.00 0.00 69 1019.6
20260506222731 59 146 2.6 7.8 0.00 0.00 0.00 68 1019.6
20260506222159 59 149 1.7 7.8 0.00 0.00 0.00 68 1019.6
20260506221658 59 188 1.7 7.8 0.00 0.00 0.00 69 1020.0
20260506221157 59 189 0.9 7.0 0.00 0.00 0.00 68 1020.0
20260506220657 59 194 2.6 7.0 0.00 0.00 0.00 69 1020.0
20260506220155 59 140 1.7 7.0 0.00 0.00 0.00 69 1020.0
20260506215654 59 150 3.5 7.0 0.00 0.00 0.00 68 1020.0
20260506215153 59 173 1.7 5.2 0.00 0.00 0.00 69 1020.0
20260506214652 59 167 1.7 4.3 0.00 0.00 0.00 70 1020.0
20260506214151 59 179 2.6 4.3 0.00 0.00 0.00 69 1020.0
20260506213650 59 166 0.9 4.3 0.00 0.00 0.00 70 1020.0
20260506213150 58 229 0.9 6.1 0.00 0.00 0.00 70 1020.0
20260506212648 58 124 1.7 6.1 0.00 0.00 0.00 70 1020.0
20260506212147 58 178 1.7 6.1 0.00 0.00 0.00 70 1020.0
20260506211647 58 199 0.9 6.1 0.00 0.00 0.00 70 1020.0
20260506211145 58 160 2.6 5.2 0.00 0.00 0.00 71 1020.0
20260506210644 58 195 1.7 5.2 0.00 0.00 0.00 71 1020.0
20260506210143 58 171 1.7 4.3 0.00 0.00 0.00 70 1020.0
20260506205642 58 153 0.9 6.1 0.00 0.00 0.00 70 1020.0
20260506205110 58 276 0.9 6.1 0.00 0.00 0.00 70 1020.0
20260506204609 58 226 1.7 6.1 0.00 0.00 0.00 71 1020.0
20260506203934 58 162 2.6 6.1 0.00 0.00 0.00 71 1020.0
20260506203434 58 220 0.9 6.1 0.00 0.00 0.00 71 1020.0
20260506202933 58 253 0.9 6.1 0.00 0.00 0.00 72 1019.6
20260506202432 58 207 2.6 6.1 0.00 0.00 0.00 72 1019.6
20260506201931 57 114 1.7 4.3 0.00 0.00 0.00 74 1019.6
20260506201430 57 139 1.7 4.3 0.00 0.00 0.00 74 1020.0
20260506200930 57 157 1.7 3.5 0.00 0.00 0.00 74 1020.0
20260506200429 57 127 1.7 3.5 0.00 0.00 0.00 75 1020.0
20260506195928 57 253 1.7 4.3 0.00 0.00 0.00 76 1020.0
20260506195427 57 173 1.7 4.3 0.00 0.00 0.00 75 1020.0
20260506194926 57 171 1.7 4.3 0.00 0.00 0.00 75 1019.6
20260506194425 57 171 1.7 3.5 0.00 0.00 0.00 76 1019.6
20260506193924 57 60 0.9 3.5 0.00 0.00 0.00 77 1019.6
20260506193423 57 137 0.9 1.7 0.00 0.00 0.00 78 1019.6
20260506192922 56 194 0.9 1.7 0.00 0.00 0.00 78 1019.6
20260506192421 56 171 0.9 1.7 0.00 0.00 0.00 80 1019.6
20260506191920 56 148 0.0 3.5 0.00 0.00 0.00 80 1019.6
20260506191419 56 201 0.9 3.5 0.00 0.00 0.00 81 1019.6
20260506190847 56 116 0.9 3.5 0.00 0.00 0.00 81 1019.6
20260506190346 55 113 1.7 3.5 0.00 0.00 0.00 81 1019.6
20260506185846 55 165 0.9 3.5 0.00 0.00 0.00 83 1019.6
20260506185343 55 161 0.9 3.5 0.00 0.00 0.00 83 1019.6
20260506184842 55 160 1.7 3.5 0.00 0.00 0.00 83 1019.6
20260506184341 54 133 1.7 3.5 0.00 0.00 0.00 84 1019.6
20260506183841 55 212 1.7 3.5 0.00 0.00 0.00 84 1019.6
20260506183340 55 188 0.9 2.6 0.00 0.00 0.00 85 1019.6
20260506182808 55 135 0.0 2.6 0.00 0.00 0.00 85 1019.6
20260506182236 55 161 0.9 2.6 0.00 0.00 0.00 86 1019.6
20260506181735 55 135 0.0 2.6 0.00 0.00 0.00 86 1019.6
20260506181235 55 121 0.9 2.6 0.00 0.00 0.00 85 1019.6
20260506180703 54 118 0.9 2.6 0.00 0.00 0.00 85 1019.6
20260506180202 54 225 1.7 3.5 0.00 0.00 0.00 85 1019.6
20260506175629 54 147 1.7 3.5 0.00 0.00 0.00 86 1019.3
20260506175128 54 116 0.9 3.5 0.00 0.00 0.00 86 1019.3
20260506174628 54 191 0.0 3.5 0.00 0.00 0.00 86 1019.3
20260506174127 54 169 1.7 3.5 0.00 0.00 0.00 85 1019.3
20260506173554 54 138 1.7 3.5 0.00 0.00 0.00 86 1019.3
20260506173054 55 238 1.7 3.5 0.00 0.00 0.00 86 1019.3
20260506172553 55 173 0.0 3.5 0.00 0.00 0.00 85 1019.3
20260506172052 55 116 0.9 3.5 0.00 0.00 0.00 85 1019.6
20260506171551 55 194 0.9 3.5 0.00 0.00 0.00 84 1019.3
20260506171050 55 196 0.9 3.5 0.00 0.00 0.00 84 1019.3
20260506170549 55 251 0.9 3.5 0.00 0.00 0.00 84 1019.6
20260506170048 55 137 0.9 3.5 0.00 0.00 0.00 83 1019.3
20260506165547 55 201 0.9 3.5 0.00 0.00 0.00 83 1019.3
20260506165046 55 181 1.7 3.5 0.00 0.00 0.00 82 1019.3
20260506164514 55 194 0.9 2.6 0.00 0.00 0.00 82 1019.3
20260506163911 55 174 0.0 4.3 0.00 0.00 0.00 82 1019.3
20260506163339 55 240 0.0 4.3 0.00 0.00 0.00 82 1019.3
20260506162838 55 240 0.9 5.2 0.00 0.00 0.00 82 1019.3
20260506162337 55 146 1.7 5.2 0.00 0.00 0.00 83 1019.0
20260506161805 55 221 1.7 5.2 0.00 0.00 0.00 83 1019.0
20260506161304 54 149 2.6 5.2 0.00 0.00 0.00 84 1019.0
20260506160804 54 240 0.9 4.3 0.00 0.00 0.00 86 1019.0
20260506160303 54 223 0.0 4.3 0.00 0.00 0.00 86 1018.6
20260506155803 54 231 0.9 5.2 0.00 0.00 0.00 85 1018.6
20260506155305 54 198 1.7 5.2 0.00 0.00 0.00 86 1018.6
20260506154801 54 122 2.6 6.1 0.00 0.00 0.00 85 1018.6
20260506154301 54 115 1.7 6.1 0.00 0.00 0.00 85 1018.6
20260506153800 54 147 1.7 6.1 0.00 0.00 0.00 86 1018.6
20260506153259 54 143 1.7 6.1 0.00 0.00 0.00 86 1019.0
20260506152759 54 124 1.7 2.6 0.00 0.00 0.00 87 1019.0
20260506152227 54 148 0.9 2.6 0.00 0.00 0.00 87 1019.0
20260506151726 54 174 0.9 2.6 0.00 0.00 0.00 87 1019.0
20260506151226 54 168 0.9 2.6 0.00 0.00 0.00 87 1019.0
20260506150725 54 252 0.0 2.6 0.00 0.00 0.00 87 1019.0
20260506150225 54 252 0.0 2.6 0.00 0.00 0.00 87 1018.6
20260506145724 54 141 0.9 2.6 0.00 0.00 0.00 87 1018.6
20260506145222 54 117 1.7 2.6 0.00 0.00 0.00 87 1018.6
20260506144721 54 210 1.7 1.7 0.00 0.00 0.00 87 1018.6
20260506144220 54 91 0.0 2.6 0.00 0.00 0.00 86 1018.6
20260506143648 54 154 0.0 2.6 0.00 0.00 0.00 86 1018.6
20260506143147 54 149 0.0 2.6 0.00 0.00 0.00 86 1019.0
20260506142646 54 195 0.9 2.6 0.00 0.00 0.00 85 1019.0
20260506142145 54 224 0.9 2.6 0.00 0.00 0.00 85 1018.6
20260506141613 54 236 0.9 2.6 0.00 0.00 0.00 85 1018.6
20260506141112 54 256 0.9 2.6 0.00 0.00 0.00 84 1018.6
20260506140540 54 228 0.9 2.6 0.00 0.00 0.00 84 1018.6
20260506140039 54 230 0.9 2.6 0.00 0.00 0.00 84 1018.6
20260506135538 54 180 0.9 2.6 0.00 0.00 0.00 84 1018.6
20260506135037 54 152 0.9 4.3 0.00 0.00 0.00 84 1018.6
20260506134536 54 143 0.9 4.3 0.00 0.00 0.00 84 1018.6
20260506134035 54 144 0.9 4.3 0.00 0.00 0.00 84 1018.6
20260506133534 54 158 1.7 4.3 0.00 0.00 0.00 84 1018.3
20260506133034 54 217 0.9 2.6 0.00 0.00 0.00 84 1018.3
20260506132533 54 260 0.9 2.6 0.00 0.00 0.00 84 1018.6
20260506132032 54 127 0.0 2.6 0.00 0.00 0.00 84 1018.3
20260506131531 54 211 0.0 3.5 0.00 0.00 0.00 84 1018.3
20260506131030 54 154 0.9 3.5 0.00 0.00 0.00 84 1018.3
20260506130529 54 186 0.0 3.5 0.00 0.00 0.00 84 1018.3
20260506130028 54 187 1.7 3.5 0.00 0.00 0.00 84 1017.9
20260506125527 54 118 0.9 2.6 0.00 0.00 0.00 84 1017.9
20260506125026 54 155 0.9 1.7 0.00 0.00 0.00 84 1017.9
20260506124423 54 183 0.9 2.6 0.00 0.00 0.00 84 1017.9
20260506123922 54 197 0.9 2.6 0.00 0.00 0.00 84 1017.9
20260506123422 54 157 0.9 2.6 0.00 0.00 0.00 84 1017.9
20260506122921 55 117 0.9 3.5 0.00 0.00 0.00 84 1017.9
20260506122349 55 156 0.9 3.5 0.00 0.00 0.00 84 1017.9
20260506121817 55 168 0.9 3.5 0.00 0.00 0.00 83 1017.9
20260506121316 55 153 1.7 2.6 0.00 0.00 0.00 83 1017.9
20260506120815 55 211 0.9 2.6 0.00 0.00 0.00 83 1017.6
20260506120314 55 158 0.9 2.6 0.00 0.00 0.00 83 1017.6
20260506115814 55 152 0.9 1.7 0.00 0.00 0.00 83 1017.6
20260506115313 55 240 0.0 1.7 0.00 0.00 0.00 83 1017.9
20260506114811 55 240 0.9 2.6 0.00 0.00 0.00 83 1017.6
20260506114311 54 191 0.0 2.6 0.00 0.00 0.00 83 1017.6
20260506113810 54 191 0.0 2.6 0.00 0.00 0.00 83 1017.6
20260506113309 54 183 1.7 4.3 0.00 0.00 0.00 83 1017.6
20260506112809 54 142 1.7 4.3 0.00 0.00 0.00 83 1017.6
20260506112308 54 182 0.9 4.3 0.00 0.00 0.00 84 1017.3
20260506111806 54 147 0.9 4.3 0.00 0.00 0.00 84 1017.6
20260506111306 54 166 1.7 4.3 0.00 0.00 0.00 84 1017.6
20260506110804 54 227 0.0 1.7 0.00 0.00 0.00 84 1017.3
20260506110232 54 278 0.9 1.7 0.00 0.00 0.00 84 1017.3
20260506105629 54 110 0.0 1.7 0.00 0.00 0.00 84 1017.3
20260506105128 54 298 0.0 1.7 0.00 0.00 0.00 84 1017.3
20260506104557 54 271 0.0 0.9 0.00 0.00 0.00 84 1017.3
20260506104056 54 130 0.0 0.9 0.00 0.00 0.00 84 1017.3
20260506103524 54 130 0.0 0.9 0.00 0.00 0.00 84 1017.3
20260506103024 54 158 0.0 1.7 0.00 0.00 0.00 84 1017.3
20260506102523 54 158 0.0 1.7 0.00 0.00 0.00 84 1016.9
20260506102022 54 160 0.0 1.7 0.00 0.00 0.00 84 1017.3
20260506101521 54 162 0.9 1.7 0.00 0.00 0.00 84 1017.3
20260506101020 54 265 0.0 1.7 0.00 0.00 0.00 84 1016.9
20260506100519 54 269 0.0 2.6 0.00 0.00 0.00 84 1016.9
20260506100019 54 235 0.9 2.6 0.00 0.00 0.00 85 1016.9
20260506095517 54 182 0.0 2.6 0.00 0.00 0.00 85 1016.9
20260506095017 54 230 0.0 2.6 0.00 0.00 0.00 85 1016.9
20260506094516 54 179 0.0 2.6 0.00 0.00 0.00 86 1016.9
20260506093944 53 184 0.9 2.6 0.00 0.00 0.00 86 1016.6
20260506093443 53 150 0.9 2.6 0.00 0.00 0.00 87 1016.6
20260506092943 52 117 0.9 2.6 0.00 0.00 0.00 88 1016.6
20260506092411 52 101 0.0 0.9 0.00 0.00 0.00 88 1016.6
20260506091910 52 148 0.0 0.0 0.00 0.00 0.00 88 1016.6
20260506091409 52 148 0.0 0.0 0.00 0.00 0.00 88 1016.6
20260506090838 52 148 0.0 0.0 0.00 0.00 0.00 88 1016.6
20260506090305 52 148 0.0 0.0 0.00 0.00 0.00 88 1016.6
20260506085702 52 148 0.0 0.0 0.00 0.00 0.00 88 1016.6
20260506085201 52 148 0.0 0.0 0.00 0.00 0.00 88 1016.6
20260506084700 52 148 0.0 0.0 0.00 0.00 0.00 87 1016.6
20260506084159 52 148 0.0 0.0 0.00 0.00 0.00 87 1016.3
20260506083658 53 148 0.0 0.0 0.00 0.00 0.00 86 1016.3
20260506083157 53 148 0.0 0.0 0.00 0.00 0.00 86 1016.3
20260506082656 53 148 0.0 0.0 0.00 0.00 0.00 87 1016.3
20260506082124 53 148 0.0 0.0 0.00 0.00 0.00 87 1016.3
20260506081552 53 148 0.0 0.0 0.00 0.00 0.00 87 1016.3
20260506081051 53 148 0.0 0.0 0.00 0.00 0.00 87 1015.9
20260506080550 53 148 0.0 0.0 0.00 0.00 0.00 87 1015.9
20260506073512 54 148 0.0 0.0 0.00 0.00 0.00 86 1015.9
20260506073011 54 147 0.0 0.0 0.00 0.00 0.00 86 1015.9